Blacksburg, VA

8:10 AM EDT on June 26, 2017 (GMT -0400)
Virginia Tech

Weather History for KBCB - January, 2012

Change the Weather History Date:

Tuesday, January 10, 2012

  Actual Average Record
Temperature  
Mean Temperature 39 °F 31 °F  
Max Temperature 50 °F 41 °F 60 °F (1975)
Min Temperature 28 °F 21 °F -12 °F (1970)
Degree Days  
Heating Degree Days 26 34  
Month to date heating degree days 302 340  
Since 1 July heating degree days 2120 2487  
Cooling Degree Days 0 0  
Month to date cooling degree days 0 0  
Year to date cooling degree days 0 0  
Moisture  
Dew Point 32 °F    
Average Humidity 73    
Maximum Humidity 100    
Minimum Humidity 46    
Precipitation  
Precipitation 0.00 in 0.10 in 1.02 in (1965)
Month to date precipitation 0.21 0.99  
Year to date precipitation 0.21 0.99  
Snow  
Snow 0.00 in - - ()
Month to date snowfall 1.2  
Since 1 July snowfall 1.2  
Snow Depth 0.00 in    
Sea Level Pressure  
Sea Level Pressure 30.05 in    
Wind  
Wind Speed 5 mph (WNW)    
Max Wind Speed 15 mph    
Max Gust Speed 24 mph    
Visibility 10 miles    
Events      
T = Trace of Precipitation, MM = Missing Value Source: NWS Daily Summary

Daily Weather History Graph

Daily Weather History Graph

Search for Another Location

Airport or City:

Trip Planner

Search our weather history database for the weather conditions in past years. The results will help you decide how hot, cold, wet, or windy it might be!

Date:

Astronomy

Jan. 10, 2012 Rise Set
Actual Time 7:35 AM EST 5:22 PM EST
Civil Twilight 7:06 AM EST 5:51 PM EST
Nautical Twilight 6:34 AM EST 6:23 PM EST
Astronomical Twilight 6:03 AM EST 6:55 PM EST
Moon 7:09 PM EST (1/10) 8:15 AM EST (1/10)
Length of Visible Light 10h 44m
Length of Day
9h 46m
Full, 98% of the Moon is Illuminated
Jan 10
Full
Jan 16
Last Quarter
Jan 23
New
Jan 30
First Quarter
Feb 7
Full

Hourly Weather History & Observations

Time (EST) Temp. Windchill Dew Point Humidity Pressure Visibility Wind Dir Wind Speed Gust Speed Precip Events Conditions
12:15 AM 44.6 °F 37.8 °F 42.8 °F 93% 30.03 in 10.0 mi WNW 15.0 mph 19.6 mph N/A   Clear
12:35 AM 44.6 °F 37.8 °F 39.2 °F 81% 30.03 in 10.0 mi WNW 15.0 mph 25.3 mph N/A   Clear
12:55 AM 42.8 °F 35.8 °F 35.6 °F 76% 30.02 in 10.0 mi WNW 13.8 mph 21.9 mph N/A   Clear
1:15 AM 42.8 °F 36.2 °F 32.0 °F 66% 30.02 in 10.0 mi WNW 12.7 mph 21.9 mph N/A   Clear
1:35 AM 42.8 °F 37.5 °F 30.2 °F 61% 30.03 in 10.0 mi WNW 9.2 mph 18.4 mph N/A   Clear
1:55 AM 42.8 °F 38.0 °F 28.4 °F 57% 30.03 in 10.0 mi WNW 8.1 mph 19.6 mph N/A   Clear
2:15 AM 41.0 °F 34.7 °F 28.4 °F 61% 30.04 in 10.0 mi WNW 10.4 mph 16.1 mph N/A   Clear
2:35 AM 41.0 °F 35.8 °F 28.4 °F 61% 30.04 in 10.0 mi WNW 8.1 mph - N/A   Clear
2:55 AM 39.2 °F 34.2 °F 28.4 °F 65% 30.05 in 10.0 mi West 6.9 mph - N/A   Clear
3:15 AM 39.2 °F 32.5 °F 30.2 °F 70% 30.05 in 10.0 mi West 10.4 mph - N/A   Clear
3:35 AM 39.2 °F 33.6 °F 32.0 °F 75% 30.05 in 10.0 mi West 8.1 mph - N/A   Clear
3:55 AM 39.2 °F 32.0 °F 33.8 °F 81% 30.05 in 10.0 mi WNW 11.5 mph 16.1 mph N/A   Clear
4:15 AM 37.4 °F 30.8 °F 33.8 °F 87% 30.04 in 10.0 mi WNW 9.2 mph - N/A   Clear
4:35 AM 37.4 °F 31.4 °F 33.8 °F 87% 30.04 in 10.0 mi WNW 8.1 mph - N/A   Clear
4:55 AM 37.4 °F 32.1 °F 33.8 °F 87% 30.04 in 10.0 mi West 6.9 mph - N/A   Clear
5:15 AM 37.4 °F 32.8 °F 33.8 °F 87% 30.04 in 10.0 mi WNW 5.8 mph 18.4 mph N/A   Clear
5:35 AM 37.4 °F 34.9 °F 32.0 °F 81% 30.05 in 10.0 mi WNW 3.5 mph - N/A   Clear
5:55 AM 37.4 °F 34.9 °F 32.0 °F 81% 30.06 in 10.0 mi West 3.5 mph - N/A   Clear
6:15 AM 37.4 °F 34.9 °F 32.0 °F 81% 30.06 in 10.0 mi WSW 3.5 mph - N/A   Clear
6:35 AM 37.4 °F - 32.0 °F 81% 30.07 in 10.0 mi Calm Calm - N/A   Clear
6:55 AM 35.6 °F - 30.2 °F 81% 30.07 in 10.0 mi Calm Calm - N/A   Clear
7:15 AM 35.6 °F - 30.2 °F 81% 30.08 in 10.0 mi Calm Calm - N/A   Clear
7:35 AM 33.8 °F 30.8 °F 30.2 °F 87% 30.08 in 10.0 mi West 3.5 mph - N/A   Clear
7:55 AM 35.6 °F 31.7 °F 30.2 °F 81% 30.08 in 10.0 mi WNW 4.6 mph - N/A   Clear
8:15 AM 35.6 °F 32.8 °F 30.2 °F 81% 30.08 in 10.0 mi West 3.5 mph - N/A   Clear
8:35 AM 37.4 °F 34.9 °F 32.0 °F 81% 30.09 in 10.0 mi West 3.5 mph - N/A   Clear
9:15 AM 39.2 °F 37.0 °F 33.8 °F 81% 30.10 in 10.0 mi West 3.5 mph - N/A   Clear
9:35 AM 41.0 °F 39.0 °F 33.8 °F 76% 30.11 in 10.0 mi West 3.5 mph - N/A   Clear
9:55 AM 42.8 °F 39.3 °F 33.8 °F 70% 30.10 in 10.0 mi West 5.8 mph - N/A   Clear
10:15 AM 42.8 °F 39.3 °F 33.8 °F 70% 30.11 in 10.0 mi West 5.8 mph - N/A   Clear
10:35 AM 42.8 °F 39.3 °F 33.8 °F 70% 30.10 in 10.0 mi West 5.8 mph - N/A   Clear
10:55 AM 44.6 °F 40.2 °F 33.8 °F 66% 30.10 in 10.0 mi West 8.1 mph - N/A   Clear
11:15 AM 44.6 °F 42.2 °F 33.8 °F 66% 30.10 in 10.0 mi WNW 4.6 mph - N/A   Clear
11:35 AM 46.4 °F 42.9 °F 33.8 °F 62% 30.09 in 10.0 mi West 6.9 mph - N/A   Clear
11:55 AM 46.4 °F 42.4 °F 33.8 °F 62% 30.08 in 10.0 mi West 8.1 mph - N/A   Clear
12:15 PM 48.2 °F - 33.8 °F 58% 30.07 in 10.0 mi West 5.8 mph - N/A   Clear
12:35 PM 48.2 °F - 33.8 °F 58% 30.07 in 10.0 mi WSW 5.8 mph - N/A   Clear
1:15 PM 50.0 °F - 33.8 °F 54% 30.05 in 10.0 mi West 5.8 mph - N/A   Clear
1:35 PM 50.0 °F - 33.8 °F 54% 30.05 in 10.0 mi WNW 6.9 mph - N/A   Clear
2:15 PM 51.8 °F - 33.8 °F 50% 30.04 in 10.0 mi WNW 5.8 mph - N/A   Clear
2:35 PM 51.8 °F - 32.0 °F 47% 30.04 in 10.0 mi WNW 3.5 mph - N/A   Clear
2:55 PM 51.8 °F - 32.0 °F 47% 30.04 in 10.0 mi NW 6.9 mph - N/A   Clear
3:15 PM 51.8 °F - 32.0 °F 47% 30.04 in 10.0 mi WNW 6.9 mph - N/A   Clear
3:35 PM 50.0 °F - 30.2 °F 47% 30.04 in 10.0 mi WNW 6.9 mph - N/A   Clear
3:55 PM 50.0 °F - 30.2 °F 47% 30.03 in 10.0 mi Calm Calm - N/A   Clear
4:15 PM 50.0 °F - 30.2 °F 47% 30.03 in 10.0 mi Calm Calm - N/A   Clear
4:35 PM 48.2 °F - 30.2 °F 50% 30.03 in 10.0 mi Calm Calm - N/A   Clear
4:55 PM 48.2 °F - 32.0 °F 54% 30.03 in 10.0 mi Calm Calm - N/A   Clear
5:15 PM 44.6 °F 43.1 °F 32.0 °F 61% 30.02 in 10.0 mi NNW 3.5 mph - N/A   Clear
5:35 PM 42.8 °F - 30.2 °F 61% 30.02 in 10.0 mi Calm Calm - N/A   Clear
5:55 PM 42.8 °F - 32.0 °F 66% 30.02 in 10.0 mi Calm Calm - N/A   Clear
6:15 PM 39.2 °F - 30.2 °F 70% 30.01 in 10.0 mi Calm Calm - N/A   Clear
6:35 PM 39.2 °F - 32.0 °F 75% 30.01 in 10.0 mi Calm Calm - N/A   Clear
6:55 PM 39.2 °F - 30.2 °F 70% 30.02 in 10.0 mi Calm Calm - N/A   Clear
7:15 PM 37.4 °F - 32.0 °F 81% 30.02 in 10.0 mi Calm Calm - N/A   Clear
7:35 PM 35.6 °F 32.8 °F 32.0 °F 87% 30.02 in 10.0 mi East 3.5 mph - N/A   Clear
7:55 PM 37.4 °F - 30.2 °F 75% 30.03 in 10.0 mi Calm Calm - N/A   Clear
8:15 PM 35.6 °F - 30.2 °F 81% 30.02 in 10.0 mi Calm Calm - N/A   Clear
8:35 PM 35.6 °F - 30.2 °F 81% 30.03 in 10.0 mi Calm Calm - N/A   Clear
8:55 PM 35.6 °F - 30.2 °F 81% 30.02 in 10.0 mi Calm Calm - N/A   Clear
9:15 PM 33.8 °F - 30.2 °F 87% 30.02 in 10.0 mi Calm Calm - N/A   Clear
9:35 PM 33.8 °F - 30.2 °F 87% 30.02 in 10.0 mi Calm Calm - N/A   Clear
9:55 PM 33.8 °F - 30.2 °F 87% 30.01 in 10.0 mi Calm Calm - N/A   Clear
10:15 PM 33.8 °F - 30.2 °F 87% 30.01 in 10.0 mi Calm Calm - N/A   Clear
10:35 PM 33.8 °F - 30.2 °F 87% 30.01 in 10.0 mi Calm Calm - N/A   Clear
11:15 PM 32.0 °F - 30.2 °F 93% 30.01 in 10.0 mi Calm Calm - N/A   Clear
11:35 PM 30.2 °F - 30.2 °F 100% 30.01 in 10.0 mi Calm Calm - N/A   Clear
11:55 PM 30.2 °F - 30.2 °F 100% 30.01 in 10.0 mi Calm Calm - N/A   Clear